DECAYED

COSMOS 2251 DEB, 34788 (Decayed)

Orbit data source: Space-Track

COSMOS 2251 DEB, 34788 was space debris in LEO originally from a launch on Wed, 16 Jun 1993 UTC launched from the Plesetsk Missile And Space Complex (PKMTR). The debris from Iridium 33, an American commercial communications satellite, has been tracked extensively since its accidental collision with the defunct Russian satellite Cosmos 2251 in 2009. This event, occurring at high speed in low Earth orbit (LEO), generated thousands of pieces of space debris, significantly increasing the risk of further collisions. The Iridium 33 debris cloud has impacted space traffic management and orbital debris mitigation strategies, making it a subject of ongoing study in space situational awareness.

Loading next visibility...
Identifier
34788, 1993-036AAR
Orbit
Decayed
Country
Flag of CISCIS
Related business
Manufacturer
Unknown
Mission
Decayed spacecraft
Bus & Motor
Unknown
Mass
Unknown
Launch date (UTC)
1993-06-16 (33 years ago)
Launch vehicle
Unknown
Launch site
Plesetsk Missile And Space Complex (PKMTR)
Object type
Payload
Rocket body
Debris
Shape & HBR
Unknown shape, 0.1 m
Radar Cross Section
Medium (>0.1 m² and <1 m²)

Expand to show TLE details & history
Last TLE update: 1 year ago

TLE from 1 year ago
0 COSMOS 2251 DEB
1 34788U 93036AAR 25209.45506881  .01987987  38911-2  17833-2 0  9993
2 34788  73.9326 229.9980 0010195 294.0170  66.0007 16.13522167893902
Epoch: 2025-07-28T10:55Z
TLE epoch observation values (Epoch: 2025-07-28T10:55:17.945Z)
Latitude
-0.00008°
Longitude
119.81045°
Altitude
237.277 km
Speed
7.766 km/s
True Right ascension
15h 19m 59s
True Declination
0° 00' 00"
Sunlit
Object was in daylight at epoch
Visualization orbit readout
Latitude
Unknown
Longitude
Unknown
Altitude
Unknown
Speed
Unknown
Apparent Right ascension
Unknown
Apparent Declination
Unknown
Sunlit
N/A
Visualization observer readout
Local Sidereal Time
15:01:36
Azimuth
Unknown
Elevation
Unknown
Doppler factor
Unknown
Orbital elements
Apogee altitude
241.381 km
Perigee altitude
227.898 km
Semi-major axis
6,612.777 km
Eccentricity
0.00102
Inclination
73.9326°
RAAN
229.998°
Arg. of periapsis
294.017°
True anomaly
66.10748°
Mean anomaly
66.0007°
Eccentric anomaly
66.05409°
Mean motion
4.03615 °/min
Orbital period
89.19 mins
BSTAR
0.0017833
Loading maneuver chart data...
Computing Atmospheric mass density...

Documentation

Showing up to 5 results
|